SCP
0 -0 -0 -0 -0 -0 -0 -0 -0 -0 -0 -0 -0 -0 -0 -0 -0 -0 -0 -0 -0 -0 -0 -0 0 -0 0
0 0 -0 -0 -0 -0 -0 -0 -0 -0 -0 -0 -0 -0 -0 -0 -0 -0 -0 -0 -0 -0 0 0 0 0 0
0 0 0 -0 -0 -0 -0 0 0 -0 0 0 -0 -0 -0 -0 -0 -0 -0 0 0 0 0 0 -0 0 0
0 0 0 0 0 0 0 -0 -0 0 0 0 0 -0 -0 -0 -0 0 0 0 0 0 0 0 0 0 0
0 0 0 0 -0 0 0 0 0 0 0 0 0 0 0 0 0 0 0 0 0 0 0 0 0 0 0
0 0 0 0 0 0 0 0 0 0 0 0 0 0 0 0 0 0 0 0 0 0 0 0 0 0 0
0 0 0 0 0 0 0 0 0 0 0 0 0 0 0 0 0 0 0 0 0 0 0 0 0 0 0
0 0 0 0 0 0 0 0 0 0 0 0 0 0 0 0 0 0 0 0 0 0 0 0 0 0 0
0 0 0 0 0 0 0 0 0 0 0 0 0 0 0 0 0 0 0 0 0 0 0 0 0 0 0
0 0 0 0 0 0 0 0 0 0 0 0 0 0 0 0 0 0 0 0 0 0 0 0 0 0 0
0 0 0 0 0 0 0 0 0 0 0 0 0 0 0 0 0 0 0 0 0 0 0 0 0 0 0
0 0 0 0 0 0 0 0 0 0 0 0 0 0 0 0 0 0 0 0 0 0 0 0 0 0 0
0 0 0 0 0 0 0 0 0 0 0 0 0 0 0 0 0 0 0 0 0 0 0 0 0 0 0
0 0 0 0 0 0 0 0 0 0 0 0 0 0 0 0 0 0 0 0 0 0 0 0 0 0 0
0 0 0 0 0 0 0 0 0 0 0 0 0 0 0 0 0 0 0 0 0 0 0 0 0 0 0
0 0 0 0 0 0 0 0 0 0 0 0 0 0 0 0 0 0 0 0 0 0 0 0 0 0 0
Wind_Speed_500mb
23 18 23 25 22 15 10 13 16 18 19 19 22 24 25 26 27 27 30 32 32 31 31 31 31 30 29
25 23 22 26 23 19 11 15 16 18 18 19 19 22 23 23 24 24 26 27 28 27 26 25 26 27 23
26 25 22 24 22 17 14 15 15 13 16 17 18 18 20 20 20 20 21 20 22 23 23 23 23 24 19
28 26 25 21 21 19 16 14 11 8 15 15 14 15 15 16 16 15 15 13 17 18 18 19 20 19 18
26 27 27 23 22 22 20 18 14 12 11 12 10 11 11 9 11 9 11 14 14 14 17 17 17 12 14
24 24 28 26 24 22 21 19 15 13 10 7 4 6 6 7 6 8 8 8 11 14 16 15 16 17 16
30 26 27 26 25 24 22 19 16 13 12 10 8 4 2 2 2 3 5 7 9 14 16 17 17 14 12
33 33 31 28 27 22 22 20 17 15 13 11 9 8 7 6 4 2 2 7 12 14 18 14 21 14 11
38 37 34 31 31 26 24 22 21 17 16 15 14 11 8 8 5 4 5 9 7 8 11 8 12 12 12
42 40 37 35 35 33 30 27 25 23 21 20 19 14 15 11 7 4 3 9 10 9 10 13 4 9 9
47 42 41 41 37 36 33 29 28 27 24 23 23 18 16 15 12 7 7 11 11 13 13 8 8 14 6
50 45 45 44 41 41 38 36 36 30 25 22 21 21 24 15 12 10 11 11 12 16 8 1 14 7 4
61 60 59 58 51 45 43 39 38 34 27 25 21 17 19 13 14 15 14 13 14 18 3 3 5 11 10
61 61 61 56 52 47 48 44 43 35 31 29 27 25 19 18 20 18 19 17 19 22 16 9 13 12 16
65 63 60 57 55 55 55 54 49 42 36 35 31 30 27 29 27 29 24 23 28 29 22 16 15 14 23
69 69 70 72 71 67 62 56 53 46 45 37 38 35 36 35 33 32 31 34 34 36 34 27 29 21 20
Wind_Direction_500mb
144 132 137 140 142 122 89 100 108 110 104 96 89 88 84 82 79 78 77 77 77 76 74 74 71 61 55
159 150 142 148 141 138 123 99 103 110 108 104 95 90 86 85 82 79 79 79 78 71 66 62 67 56 53
175 170 161 154 157 159 135 115 120 114 99 99 99 93 89 83 79 76 77 79 77 64 54 50 51 60 33
172 174 172 165 161 159 156 135 127 118 102 102 104 98 89 83 79 75 72 68 63 51 47 37 43 49 34
169 175 171 172 171 165 173 164 175 150 141 130 116 106 97 97 88 78 67 61 65 50 37 39 39 44 30
188 180 176 177 175 175 176 180 177 174 164 139 109 82 79 70 64 47 53 46 29 24 17 15 20 20 22
201 187 189 186 184 182 186 183 181 185 180 179 175 175 145 111 51 33 17 24 9 359 0 9 4 8 350
207 195 200 196 197 197 194 196 202 200 197 204 207 215 221 212 237 253 35 353 12 354 6 342 349 348 331
209 206 205 203 203 205 211 211 217 219 221 227 229 232 199 239 231 195 340 15 357 319 337 341 352 327 343
208 210 207 211 210 207 213 218 218 224 229 228 229 220 228 239 212 206 318 342 337 345 319 299 16 295 311
204 215 213 222 222 223 225 228 229 230 234 242 229 212 222 222 228 248 273 303 317 312 292 23 283 276 202
210 215 218 226 224 225 229 232 239 232 238 236 238 234 230 229 237 266 282 291 307 303 312 29 303 194 187
211 211 217 222 222 223 230 233 232 241 238 232 235 241 251 236 245 241 266 280 288 294 305 163 284 210 225
221 224 226 230 233 235 231 233 236 243 240 233 234 234 243 241 244 252 255 266 271 280 277 222 192 201 244
226 227 228 231 233 233 231 235 233 237 239 236 231 237 239 246 246 254 254 263 270 275 271 230 192 210 206
227 229 230 232 232 236 239 240 237 237 236 235 233 235 240 248 255 259 255 262 263 265 261 242 234 222 203
Wind_Speed_850mb
23 18 23 25 22 15 10 13 16 18 19 19 22 24 25 26 27 27 30 32 32 31 31 31 31 30 29
25 23 22 26 23 19 11 15 16 18 18 19 19 22 23 23 24 24 26 27 28 27 26 25 26 27 23
26 25 22 24 22 17 14 15 15 13 16 17 18 18 20 20 20 20 21 20 22 23 23 23 23 24 19
28 26 25 21 21 19 16 14 11 8 15 15 14 15 15 16 16 15 15 13 17 18 18 19 20 19 18
26 27 27 23 22 22 20 18 14 12 11 12 10 11 11 9 11 9 11 14 14 14 17 17 17 12 14
24 24 28 26 24 22 21 19 15 13 10 7 4 6 6 7 6 8 8 8 11 14 16 15 16 17 16
30 26 27 26 25 24 22 19 16 13 12 10 8 4 2 2 2 3 5 7 9 14 16 17 17 14 12
33 33 31 28 27 22 22 20 17 15 13 11 9 8 7 6 4 2 2 7 12 14 18 14 21 14 11
38 37 34 31 31 26 24 22 21 17 16 15 14 11 8 8 5 4 5 9 7 8 11 8 12 12 12
42 40 37 35 35 33 30 27 25 23 21 20 19 14 15 11 7 4 3 9 10 9 10 13 4 9 9
47 42 41 41 37 36 33 29 28 27 24 23 23 18 16 15 12 7 7 11 11 13 13 8 8 14 6
50 45 45 44 41 41 38 36 36 30 25 22 21 21 24 15 12 10 11 11 12 16 8 1 14 7 4
61 60 59 58 51 45 43 39 38 34 27 25 21 17 19 13 14 15 14 13 14 18 3 3 5 11 10
61 61 61 56 52 47 48 44 43 35 31 29 27 25 19 18 20 18 19 17 19 22 16 9 13 12 16
65 63 60 57 55 55 55 54 49 42 36 35 31 30 27 29 27 29 24 23 28 29 22 16 15 14 23
69 69 70 72 71 67 62 56 53 46 45 37 38 35 36 35 33 32 31 34 34 36 34 27 29 21 20
Wind_Direction_850mb
144 132 137 140 142 122 89 100 108 110 104 96 89 88 84 82 79 78 77 77 77 76 74 74 71 61 55
159 150 142 148 141 138 123 99 103 110 108 104 95 90 86 85 82 79 79 79 78 71 66 62 67 56 53
175 170 161 154 157 159 135 115 120 114 99 99 99 93 89 83 79 76 77 79 77 64 54 50 51 60 33
172 174 172 165 161 159 156 135 127 118 102 102 104 98 89 83 79 75 72 68 63 51 47 37 43 49 34
169 175 171 172 171 165 173 164 175 150 141 130 116 106 97 97 88 78 67 61 65 50 37 39 39 44 30
188 180 176 177 175 175 176 180 177 174 164 139 109 82 79 70 64 47 53 46 29 24 17 15 20 20 22
201 187 189 186 184 182 186 183 181 185 180 179 175 175 145 111 51 33 17 24 9 359 0 9 4 8 350
207 195 200 196 197 197 194 196 202 200 197 204 207 215 221 212 237 253 35 353 12 354 6 342 349 348 331
209 206 205 203 203 205 211 211 217 219 221 227 229 232 199 239 231 195 340 15 357 319 337 341 352 327 343
208 210 207 211 210 207 213 218 218 224 229 228 229 220 228 239 212 206 318 342 337 345 319 299 16 295 311
204 215 213 222 222 223 225 228 229 230 234 242 229 212 222 222 228 248 273 303 317 312 292 23 283 276 202
210 215 218 226 224 225 229 232 239 232 238 236 238 234 230 229 237 266 282 291 307 303 312 29 303 194 187
211 211 217 222 222 223 230 233 232 241 238 232 235 241 251 236 245 241 266 280 288 294 305 163 284 210 225
221 224 226 230 233 235 231 233 236 243 240 233 234 234 243 241 244 252 255 266 271 280 277 222 192 201 244
226 227 228 231 233 233 231 235 233 237 239 236 231 237 239 246 246 254 254 263 270 275 271 230 192 210 206
227 229 230 232 232 236 239 240 237 237 236 235 233 235 240 248 255 259 255 262 263 265 261 242 234 222 203